Location: Siratepeler Tepesi
(39.1042°N, 32.0781°E)
Time: 05:10:32
(UTC+00:00)

COSMOS 2428 - Pass Details

Date: 11 April 2026
Orbit: 843 x 855 km, 70.9° (Epoch: 9 May)

Event Time Altitude Azimuth Distance (km) Brightness Sun altitude
Rises 17:45:21 0° 181° (S) 3,403 5.6 -15.6°
Reaches altitude 10° 17:47:54 10° 175° (S) 2,473 4.8 -16.0°
Maximum altitude 17:53:13 42° 106° (ESE) 1,202 3.0 -17.0°
Drops below altitude 10° 17:58:33 10° 37° (NE) 2,492 5.0 -17.9°
Sets 18:01:08 0° 31° (NNE) 3,432 5.8 -18.3°
